Date,TemperatureHighF,TemperatureAvgF,TemperatureLowF,DewpointHighF,DewpointAvgF,DewpointLowF,HumidityHigh,HumidityAvg,HumidityLow,PressureMaxIn,PressureMinIn,WindSpeedMaxMPH,WindSpeedAvgMPH,GustSpeedMaxMPH,PrecipitationSumIn
2013-1-1,42.4,32.2,26.0,32.4,27.5,24.1,93,83,64,30.46,30.34,3,0,7,0.00
2013-1-2,41.7,30.4,23.8,31.2,25.5,21.8,99,83,59,30.34,30.20,5,1,11,0.00
2013-1-3,37.8,31.4,23.4,32.2,27.3,21.4,93,85,72,30.26,30.15,4,0,8,0.00
2013-1-4,48.6,39.9,33.3,44.6,36.7,30.8,92,88,83,30.34,30.18,4,1,8,0.02
2013-1-5,39.9,37.0,34.8,35.9,33.0,30.4,92,86,79,30.23,30.17,5,0,7,0.02
2013-1-6,45.9,39.9,36.8,43.4,37.5,34.2,92,91,89,30.25,30.08,6,0,13,0.12
2013-1-7,51.9,48.3,44.9,49.3,45.8,42.6,96,91,88,30.23,29.99,13,6,26,0.10
2013-1-8,55.0,51.6,46.4,50.4,48.1,43.9,92,88,82,30.23,29.92,14,8,26,0.01
2013-1-9,51.5,43.1,35.4,47.5,40.0,33.1,93,89,78,30.00,29.71,14,4,26,0.27
2013-1-10,39.5,37.0,33.7,36.4,34.6,31.6,93,91,88,30.11,30.00,6,2,12,0.02
2013-1-11,39.4,32.7,27.7,33.4,29.0,25.6,93,86,69,30.32,30.23,3,1,7,0.00
2013-1-14,34.4,32.6,29.3,31.5,30.3,27.3,93,91,86,30.58,30.54,4,1,8,0.00
2013-1-15,36.1,33.7,32.8,33.6,31.6,30.8,93,92,91,30.67,30.57,1,0,5,0.00
2013-1-18,31.4,30.2,28.3,29.1,27.9,26.0,91,91,91,30.35,30.29,1,0,5,0.00
2013-1-19,31.7,30.1,28.7,29.4,27.8,26.4,91,91,91,30.36,30.30,2,0,5,0.00
2013-1-20,32.0,29.8,28.4,29.7,27.5,26.1,92,91,91,30.38,30.26,2,0,6,0.01
2013-1-21,30.2,28.6,27.5,28.4,26.5,25.3,93,92,91,30.30,30.18,4,0,8,0.00
2013-1-22,35.4,29.1,26.4,33.3,27.1,24.4,93,92,91,30.18,29.95,2,0,5,0.00
2013-1-23,35.7,33.4,30.2,33.2,31.2,28.1,93,92,86,30.21,29.91,2,0,6,0.24
2013-1-24,39.2,37.5,35.1,36.5,34.8,32.5,91,90,90,30.20,30.12,2,0,6,0.35
2013-1-25,52.8,45.2,39.2,50.5,42.6,36.5,95,90,89,30.14,29.98,5,1,13,0.14
2013-1-29,47.1,45.5,43.7,45.2,43.4,41.8,93,92,91,30.49,30.43,7,4,17,0.10
2013-1-30,49.2,46.4,43.4,47.0,44.2,41.2,93,92,90,30.49,30.44,11,7,21,0.03
2013-1-31,54.1,48.2,43.7,47.9,44.3,41.0,93,87,75,30.46,30.33,3,0,8,0.01
2013-2-1,54.1,46.6,37.4,47.4,43.1,35.3,93,88,75,30.36,30.25,5,1,11,0.00
2013-2-2,49.9,38.7,30.3,44.3,35.7,28.0,95,89,79,30.32,30.26,4,0,7,0.00
2013-2-3,48.6,42.0,33.0,45.2,39.4,30.7,93,91,86,30.35,30.24,3,0,6,0.00
2013-2-4,51.9,44.7,39.3,45.0,41.3,36.7,93,88,75,30.24,29.94,3,0,6,0.00
2013-2-5,51.0,46.6,44.1,46.9,43.6,41.7,93,90,82,30.06,29.92,11,5,20,0.38
2013-2-6,52.1,47.0,43.2,44.1,42.3,39.3,93,84,71,30.11,29.85,14,4,26,0.08
2013-2-7,49.7,42.4,37.0,41.1,38.5,34.8,93,86,65,30.14,29.93,7,2,18,0.01
2013-2-8,42.9,39.2,35.7,38.6,36.1,33.1,93,88,80,30.29,30.15,3,0,8,0.01
2013-2-9,44.6,39.6,33.7,41.8,37.3,31.6,93,91,88,30.31,30.27,3,0,7,0.02
2013-2-10,45.7,43.0,39.7,42.4,39.4,37.0,93,87,78,30.35,30.31,3,0,7,0.01
2013-2-11,46.8,43.9,41.1,42.1,39.2,36.9,90,84,79,30.40,30.32,6,2,12,0.00
2013-2-12,55.5,50.7,45.5,48.6,46.6,43.3,92,86,74,30.48,30.43,8,4,15,0.00
2013-2-13,53.4,49.3,45.6,48.3,44.8,40.7,92,85,68,30.51,30.43,8,3,14,0.00
2013-2-14,55.6,50.1,42.9,45.9,44.0,40.5,92,80,68,30.56,30.49,4,1,8,0.00
2013-2-15,60.4,47.6,41.1,48.8,43.1,38.7,92,85,61,30.49,30.20,4,1,10,0.01
2013-2-16,52.6,44.3,37.5,47.2,40.5,35.4,92,87,68,30.29,30.22,9,3,19,0.02
2013-2-17,47.5,41.2,35.2,40.4,35.9,32.8,93,82,59,30.31,30.10,4,0,8,0.02
2013-2-18,48.2,40.8,33.9,39.0,35.8,31.8,93,83,67,30.10,29.75,8,2,15,0.02
2013-2-19,53.8,43.7,36.9,41.1,38.3,34.8,92,82,54,30.00,29.69,6,2,12,0.03
2013-2-20,38.2,36.2,35.2,35.5,33.6,32.8,92,91,90,30.09,30.00,1,0,3,0.00
2013-3-7,55.6,48.3,37.2,42.1,38.1,33.4,92,70,44,30.06,29.99,3,1,9,0.00
2013-3-8,39.7,38.8,37.9,36.7,36.1,35.2,91,90,88,30.04,30.03,0,0,0,0.00
2013-3-16,51.0,46.6,40.6,46.9,43.3,37.3,92,89,80,30.17,30.01,11,5,22,0.35
2013-3-17,49.4,43.0,37.6,40.5,36.7,34.3,91,79,60,30.32,30.17,9,4,17,0.00
2013-3-18,54.7,43.8,32.9,40.2,36.1,30.8,92,76,48,30.30,30.14,5,1,11,0.00
2013-3-19,48.1,43.3,36.9,43.5,39.4,34.6,92,86,74,30.14,29.67,3,1,7,0.60
2013-3-20,53.6,48.6,40.4,50.7,43.8,34.6,92,84,68,30.18,29.55,14,8,29,0.27
2013-3-21,49.8,42.1,37.4,40.2,36.8,33.3,92,82,56,30.32,30.18,9,5,21,0.04
2013-3-22,49.6,39.6,33.9,39.3,35.4,31.8,92,85,58,30.40,30.31,8,2,14,0.06
2013-3-23,50.1,41.2,34.3,38.1,33.6,27.2,92,76,44,30.40,30.27,3,0,8,0.00
2013-3-24,57.3,45.6,36.7,39.0,36.2,33.6,90,72,45,30.27,30.07,3,1,11,0.00
2013-3-25,61.6,48.8,37.5,46.1,38.6,34.1,92,71,40,30.08,29.89,4,1,8,0.00
2013-3-26,53.2,47.7,41.9,47.5,44.2,38.8,92,88,79,30.03,29.97,2,0,6,0.04
2013-3-27,64.8,51.7,41.4,51.5,46.0,38.7,92,82,56,30.00,29.90,5,1,14,0.06
2013-3-28,66.3,54.8,44.8,52.1,47.2,41.8,92,77,48,30.14,29.99,5,1,12,0.00
2013-3-29,68.2,57.6,49.5,54.2,50.1,47.0,91,78,53,30.20,30.12,4,1,9,0.00
2013-3-30,78.2,60.9,46.4,55.4,49.1,43.8,91,68,36,30.17,29.94,4,1,10,0.00
2013-3-31,72.5,60.3,49.2,57.4,51.1,46.7,91,73,51,30.01,29.90,8,2,18,0.00
2013-4-1,65.3,57.4,52.0,54.9,51.1,48.9,90,80,67,30.18,30.01,7,3,13,0.00
2013-4-2,66.7,56.7,50.1,53.3,49.7,46.7,90,78,57,30.22,30.12,6,2,12,0.00
2013-4-3,65.3,54.1,42.7,54.6,48.8,40.0,91,83,65,30.17,29.91,3,0,7,0.00
2013-4-4,62.7,57.1,53.5,57.4,52.6,49.1,91,85,71,29.91,29.69,13,4,26,0.14
2013-4-5,58.7,54.3,51.6,52.7,50.2,48.8,91,86,72,29.96,29.82,11,6,22,0.16
2013-4-6,54.5,50.7,46.7,50.7,47.2,44.2,91,88,71,30.01,29.71,12,5,24,0.72
2013-4-7,52.2,48.1,43.2,48.9,44.3,40.1,94,87,78,29.98,29.57,18,7,33,0.40
2013-4-8,56.4,47.6,39.7,46.7,42.2,37.3,92,82,63,30.30,29.98,6,2,12,0.02
2013-4-9,56.8,49.1,39.7,49.5,43.6,37.3,92,82,66,30.38,30.24,2,0,6,0.00
2013-4-10,61.5,54.1,48.2,54.1,46.9,40.2,91,77,60,30.34,30.13,12,5,27,0.04
2013-4-11,57.8,49.1,38.4,44.9,41.4,35.8,91,76,56,30.36,30.18,5,1,10,0.00
2013-4-12,53.7,44.2,38.7,45.6,39.2,35.7,91,83,71,30.18,29.95,4,1,10,0.00
2013-4-16,59.9,52.3,40.9,43.7,40.9,36.1,91,66,44,30.39,30.27,6,2,12,0.00
2013-4-17,59.0,47.9,35.2,46.1,40.6,32.7,91,77,52,30.50,30.39,4,1,12,0.00
2013-4-18,62.4,53.4,46.8,48.8,45.1,41.6,90,74,57,30.49,30.32,4,1,12,0.02
2013-4-19,59.4,52.7,49.2,54.2,48.5,46.0,91,86,72,30.32,30.17,11,6,22,0.30
2013-4-20,61.1,53.0,48.4,47.5,45.3,42.3,90,76,56,30.35,30.26,6,3,13,0.00
2013-4-21,56.6,51.4,46.3,49.2,45.3,42.1,89,80,71,30.32,30.24,7,2,14,0.00
2013-4-22,66.1,53.9,41.3,44.2,38.3,29.0,91,61,28,30.41,30.32,7,3,16,0.00
2013-4-23,70.0,56.0,41.1,41.4,36.2,30.8,78,51,24,30.37,30.13,5,2,12,0.00
2013-4-24,75.3,60.6,45.5,42.0,37.3,31.3,71,45,22,30.23,30.00,6,2,13,0.00
2013-4-25,75.5,60.3,42.0,52.9,44.8,38.4,90,59,37,30.14,30.01,4,0,9,0.00
2013-4-26,79.8,63.2,49.7,51.7,47.1,37.3,89,60,24,30.24,30.14,3,0,7,0.00
2013-4-27,72.7,59.2,44.1,48.1,44.6,37.6,90,62,29,30.26,30.18,9,3,17,0.00
2013-4-28,64.3,55.1,52.4,50.7,48.6,47.0,86,79,58,30.27,30.22,9,4,18,0.00
2013-4-29,60.0,52.7,40.6,37.9,34.4,31.9,77,51,38,30.24,30.15,7,3,16,0.00
2013-4-30,57.5,46.5,35.9,40.4,35.7,33.1,91,68,45,30.45,30.24,4,1,13,0.00
2013-5-1,70.3,54.2,36.4,42.8,37.6,33.0,89,58,31,30.52,30.42,6,2,14,0.00
2013-5-2,79.8,63.1,41.3,43.9,39.8,34.6,92,46,23,30.43,30.22,5,1,13,0.00
2013-5-3,81.3,64.6,46.0,49.9,42.8,37.5,79,48,25,30.29,30.11,5,2,12,0.00
2013-5-4,81.7,67.7,49.3,49.6,42.2,34.5,78,44,21,30.11,29.87,11,4,24,0.88
2013-5-5,84.8,72.7,58.4,49.8,42.0,36.2,53,34,22,29.87,29.66,9,3,17,0.23
2013-5-6,81.6,65.5,53.1,57.9,50.8,44.9,78,61,38,29.89,29.74,8,4,15,0.03
2013-5-7,75.1,60.3,47.5,56.2,50.5,44.4,90,72,48,30.04,29.89,7,2,14,0.02
2013-5-8,69.0,56.1,46.2,55.3,49.9,43.1,90,80,61,30.15,30.04,4,1,11,0.01
2013-5-9,79.2,62.2,46.1,58.8,52.1,43.0,90,72,45,30.19,30.05,5,1,9,0.00
2013-5-10,82.2,66.6,49.9,62.3,54.7,46.8,90,68,40,30.19,30.08,4,1,8,0.01
2013-5-11,83.8,68.0,52.8,62.3,56.4,49.3,89,69,41,30.19,29.99,4,1,10,0.00
2013-5-12,72.8,64.3,59.0,61.6,57.6,54.3,89,79,63,30.12,30.06,6,2,12,0.00
2013-5-13,67.2,59.4,50.8,56.4,52.3,47.0,90,78,56,30.23,30.06,12,4,26,0.26
2013-5-14,68.1,57.3,46.1,47.8,42.9,33.2,90,63,28,30.23,30.09,3,1,9,0.00
2013-5-15,60.3,53.6,47.9,53.8,48.6,43.8,89,83,72,30.12,30.02,6,1,15,0.09
2013-5-16,61.0,56.5,53.4,56.3,52.7,50.5,92,87,76,30.02,29.95,8,1,18,0.08
2013-5-17,63.9,55.5,47.2,53.1,48.6,44.2,90,78,56,30.11,30.00,7,1,15,0.01
2013-5-18,57.9,53.9,49.9,53.4,50.1,46.4,90,87,75,30.28,30.11,7,1,13,0.21
2013-5-19,64.8,57.7,53.2,52.7,49.8,46.4,90,76,58,30.41,30.28,5,1,12,0.13
2013-5-20,72.3,57.3,44.3,52.9,46.7,41.1,90,70,39,30.35,29.92,4,1,10,0.00
2013-5-21,58.2,49.2,43.5,50.3,45.3,40.5,90,86,72,30.01,29.84,9,4,17,0.42
2013-5-22,49.3,45.8,42.7,46.5,43.0,39.9,91,90,89,30.01,29.95,10,7,21,0.51
2013-5-23,57.8,49.8,45.8,50.0,45.9,43.0,91,87,68,30.03,29.98,9,5,19,0.51
2013-5-24,60.0,52.4,48.1,52.1,48.0,45.3,91,85,69,30.09,29.98,11,5,22,0.10
2013-5-25,68.0,57.9,48.6,53.5,49.5,46.1,91,75,48,30.08,29.92,7,2,14,0.03
2013-5-26,64.8,57.5,53.3,54.6,51.1,48.6,90,80,63,30.04,29.95,10,4,20,0.12
2013-5-27,66.5,56.6,50.8,60.2,51.8,47.4,90,84,70,30.00,29.74,11,4,23,0.62
2013-5-28,65.0,57.4,52.4,53.2,50.2,46.8,90,78,55,29.94,29.76,11,4,22,0.14
2013-5-29,63.9,55.6,49.9,55.5,50.3,45.2,90,83,62,30.08,29.63,15,4,31,0.91
2013-5-30,62.5,55.5,49.8,52.5,48.4,46.5,90,78,59,30.25,30.08,9,2,19,0.02
2013-5-31,69.5,57.8,48.8,51.2,48.4,45.8,90,73,44,30.33,30.22,4,1,10,0.00
2013-6-1,76.8,61.7,46.3,58.1,51.9,43.2,90,72,50,30.24,30.01,3,1,9,0.00
2013-6-2,72.4,62.9,56.3,55.3,52.6,50.5,87,70,47,30.08,30.02,5,1,12,0.00
2013-6-3,75.4,62.5,50.2,57.5,51.4,46.8,89,69,43,30.12,30.01,5,2,12,0.00
2013-6-4,85.1,67.6,49.9,59.3,52.8,45.5,85,62,34,30.08,29.94,4,1,9,0.00
2013-6-5,72.8,61.7,55.2,56.4,54.4,52.0,89,78,52,30.07,29.99,2,0,5,0.00
2013-6-6,84.8,76.9,62.5,63.0,54.5,39.9,56,46,34,30.05,29.95,4,1,12,0.00
2013-6-7,79.7,67.4,52.2,60.8,50.6,38.3,84,57,32,30.14,30.04,4,1,11,0.00
2013-6-8,80.3,65.4,50.9,54.7,49.7,42.8,89,60,33,30.17,30.03,4,1,11,0.00
2013-6-9,74.3,62.7,52.1,53.6,49.3,45.3,84,63,40,30.11,29.96,6,2,14,0.00
2013-6-10,71.8,59.4,47.3,51.0,46.1,43.0,86,63,43,30.03,29.88,5,2,14,0.00
2013-6-11,66.0,58.4,53.0,50.4,47.4,44.2,84,68,50,30.15,29.99,8,2,17,0.00
2013-6-12,64.5,57.6,51.9,52.4,48.9,46.4,89,73,56,30.19,30.13,6,2,13,0.01
2013-6-13,61.8,55.3,50.4,57.2,50.8,46.7,90,85,73,30.30,30.17,7,3,18,0.47
2013-6-14,69.8,58.8,47.2,53.2,49.7,43.8,90,73,53,30.30,29.98,5,1,16,0.00
2013-6-15,79.8,63.7,48.2,59.3,52.9,44.8,92,70,39,30.01,29.90,6,1,12,0.00
2013-6-16,75.6,62.5,49.3,58.8,53.6,46.0,92,74,48,30.11,30.01,5,1,11,0.00
2013-6-17,77.6,63.2,51.0,56.2,52.5,47.9,89,70,40,30.11,29.93,8,2,18,0.00
2013-6-18,70.0,60.9,53.6,56.0,51.2,48.3,89,71,49,30.01,29.93,7,3,17,0.02
2013-6-19,67.6,58.1,49.6,55.3,50.3,46.5,89,76,52,30.10,29.96,9,3,20,0.01
2013-6-20,67.0,59.6,52.7,59.0,52.1,48.8,89,77,60,30.14,30.06,8,2,14,0.24
2013-6-21,71.2,62.6,54.7,54.8,51.9,49.0,88,69,46,30.18,30.11,4,1,13,0.00
2013-6-22,80.4,66.7,50.5,58.3,52.2,45.7,89,63,31,30.11,29.84,3,0,10,0.00
2013-6-23,70.8,64.1,58.8,62.8,58.2,52.4,88,81,62,29.85,29.64,3,0,8,0.36
2013-6-24,66.5,60.5,56.4,58.1,55.3,53.2,89,83,67,29.72,29.64,8,3,17,0.04
2013-6-25,69.5,61.7,56.8,63.0,56.6,52.7,89,84,64,29.86,29.67,10,1,19,0.17
2013-6-26,73.0,65.1,59.1,61.6,58.2,54.8,89,79,59,30.04,29.85,7,2,13,0.12
2013-6-27,81.6,70.6,59.9,64.9,61.8,56.3,89,75,55,30.14,30.00,5,1,15,0.00
2013-6-28,90.8,75.0,60.4,70.4,63.5,56.2,89,70,43,30.13,30.00,3,1,12,0.00
2013-6-29,88.4,75.2,60.9,67.2,61.6,57.0,88,65,43,30.10,29.94,3,0,8,0.00
2013-6-30,95.1,78.0,61.9,70.1,64.6,58.1,89,66,37,29.96,29.81,5,1,11,0.00
2013-7-1,91.4,77.1,64.0,71.8,66.0,60.4,88,70,50,29.98,29.89,3,0,9,0.00
2013-7-2,91.2,77.1,64.7,68.6,62.7,55.8,87,63,37,30.06,29.98,6,1,12,0.00
2013-7-3,86.5,73.0,61.8,56.2,50.3,40.3,71,48,21,30.13,30.00,4,1,12,0.00
2013-7-4,77.1,65.6,54.3,55.6,52.0,46.5,84,63,44,30.14,30.02,6,2,15,0.00
2013-7-5,74.1,64.5,56.1,57.8,53.2,50.0,82,68,52,30.07,29.93,5,1,13,0.00
2013-7-6,77.9,64.4,52.8,60.1,54.8,49.0,87,72,52,29.98,29.84,5,1,13,0.00
2013-7-7,80.2,66.8,53.2,64.4,57.1,49.1,88,73,52,29.97,29.86,4,1,13,0.00
2013-7-8,83.3,67.5,54.5,59.7,55.7,50.9,88,68,42,30.08,29.97,5,1,12,0.00
2013-7-9,91.5,74.5,56.5,63.3,58.8,52.9,88,62,30,30.07,29.94,5,1,12,0.00
2013-7-10,84.0,71.1,59.4,61.1,53.9,46.5,78,56,39,30.06,29.90,6,2,13,0.00
2013-7-11,77.9,64.3,51.6,51.7,49.0,46.6,84,60,34,30.09,29.93,7,2,13,0.00
2013-7-12,76.2,64.1,50.9,54.2,49.4,45.4,83,61,39,30.10,29.99,5,2,15,0.00
2013-7-13,81.6,66.5,50.2,51.2,47.3,39.5,84,55,24,30.16,30.01,5,2,15,0.00
2013-7-14,89.1,71.8,52.6,55.7,50.7,40.0,88,52,21,30.08,29.93,5,2,14,0.00
2013-7-15,87.5,71.6,54.3,55.2,50.0,40.5,78,49,30,30.00,29.78,5,2,14,0.00
2013-7-16,88.1,70.0,56.6,61.9,55.8,49.4,83,62,39,29.99,29.74,8,2,17,0.00
2013-7-17,78.2,67.0,59.7,59.0,55.9,53.8,86,69,44,30.16,29.99,5,2,12,0.29
2013-7-18,83.1,68.9,56.4,59.3,55.6,47.3,88,66,30,30.20,30.04,8,3,14,0.00
2013-7-19,83.5,68.6,56.6,62.6,58.0,52.9,88,71,47,30.14,29.97,8,3,15,0.00
2013-7-20,79.7,66.1,56.4,63.4,57.0,52.8,88,74,54,30.08,29.92,7,3,14,0.00
2013-7-21,81.3,68.0,54.8,62.8,56.7,51.3,88,69,48,29.99,29.86,7,4,14,0.00
2013-7-22,82.4,69.0,57.9,60.9,56.7,53.8,88,68,41,30.04,29.92,7,5,13,0.00
2013-7-23,89.5,72.9,57.0,62.7,59.5,53.5,88,66,39,30.03,29.90,8,3,15,0.00
2013-7-24,89.5,76.0,61.3,61.0,58.1,55.1,87,57,33,30.02,29.92,7,3,14,0.00
2013-7-25,89.6,75.5,60.9,60.1,54.5,47.8,78,51,26,30.07,29.97,9,4,16,0.00
2013-7-26,90.3,73.1,58.2,57.8,50.8,42.0,77,49,27,30.14,30.03,10,4,19,0.00
2013-7-27,81.7,68.0,56.3,52.7,48.7,43.3,78,52,30,30.18,29.98,7,3,17,0.00
2013-7-28,74.8,62.4,49.5,56.7,51.8,46.1,88,70,49,30.06,29.94,7,3,18,0.00
2013-7-29,78.6,63.8,57.7,54.2,52.0,48.7,80,67,37,30.00,29.92,6,2,11,0.00
2013-7-31,76.7,67.0,58.4,61.6,58.3,54.3,88,74,58,30.10,30.00,5,2,12,0.01
2013-8-1,65.7,61.7,58.9,57.2,55.3,53.7,86,80,73,30.11,30.05,6,3,15,0.00
2013-8-2,71.9,64.5,58.4,56.5,54.9,53.2,87,72,55,30.15,30.08,6,2,11,0.00
2013-8-3,80.7,68.1,55.7,61.2,57.7,51.9,88,71,48,30.10,29.96,7,4,15,0.00
2013-8-4,89.4,73.6,58.8,63.1,59.8,54.9,87,65,35,30.01,29.86,6,2,12,0.00
2013-8-5,89.3,74.8,59.8,63.7,59.2,43.6,88,62,33,29.99,29.87,6,2,12,0.00
2013-8-6,91.2,76.4,59.2,56.5,48.3,39.1,76,41,17,29.98,29.85,6,2,12,0.00
2013-8-7,82.6,70.9,58.7,58.3,54.6,49.8,82,58,36,30.02,29.92,7,2,14,0.00
2013-8-8,81.6,68.3,56.9,63.1,57.4,52.9,87,70,51,30.05,29.88,7,3,13,0.00
2013-8-9,81.3,71.0,62.2,63.8,57.8,53.7,83,64,47,29.93,29.83,8,2,17,0.01
2013-8-10,79.6,68.6,59.6,63.2,60.0,55.4,87,75,53,30.03,29.89,8,2,18,0.00
2013-8-11,74.5,64.8,57.5,60.3,57.3,53.7,88,78,58,30.07,29.97,5,2,11,0.00
2013-8-12,76.0,66.2,59.2,59.9,57.2,54.0,87,74,53,30.06,30.00,4,1,10,0.00
2013-8-13,84.5,68.2,53.2,58.9,54.8,49.3,88,66,37,30.10,29.90,6,1,11,0.00
2013-8-14,85.1,70.2,56.2,61.8,55.9,46.8,88,64,27,29.96,29.89,7,2,14,0.00
2013-8-15,77.6,70.6,64.4,69.8,63.6,58.8,87,79,67,29.96,29.92,5,1,13,0.01
2013-8-16,84.1,72.0,64.7,67.2,62.7,54.7,87,74,51,30.03,29.94,5,1,15,0.00
2013-8-17,83.9,69.4,57.0,61.3,57.6,53.3,88,68,43,30.08,29.99,6,2,17,0.00
2013-8-18,83.1,70.2,57.2,61.2,58.1,53.0,88,68,43,30.13,30.01,7,2,14,0.00
2013-8-19,84.3,71.3,60.5,60.9,56.9,53.6,87,63,38,30.11,30.00,8,3,19,0.00
2013-8-20,81.6,68.3,56.2,56.6,52.1,47.5,81,59,31,30.12,29.96,9,4,18,0.00
2013-8-21,89.3,72.3,55.8,58.1,54.4,50.8,85,56,31,29.99,29.82,7,2,14,0.00
2013-8-22,83.2,71.8,59.9,63.7,57.6,53.8,86,62,40,29.89,29.81,6,2,13,0.19
2013-8-23,74.1,64.9,57.7,60.4,57.4,53.9,89,78,60,29.94,29.86,6,2,12,0.04
2013-8-24,76.1,66.7,60.4,59.7,57.2,55.0,88,73,51,29.91,29.83,5,1,9,0.00
2013-8-25,70.3,63.2,57.3,62.0,56.9,52.7,87,80,69,29.93,29.89,5,1,8,0.18
2013-8-26,77.4,65.7,59.5,61.1,56.4,49.9,88,74,41,29.96,29.88,11,3,23,0.03
2013-8-27,80.2,68.8,60.8,62.9,59.0,56.6,88,72,50,29.96,29.78,6,2,15,0.01
2013-8-28,78.3,70.2,61.3,63.7,61.3,56.8,88,74,59,29.89,29.83,5,1,11,0.03
2013-8-29,77.4,69.2,64.5,66.8,62.7,59.6,88,80,65,30.06,29.83,10,3,21,0.28
2013-8-30,80.8,71.4,64.1,63.3,61.0,57.6,88,71,46,30.14,30.02,6,2,13,0.00
2013-8-31,87.7,71.6,58.7,63.2,59.3,55.0,88,68,40,30.03,29.79,6,2,12,0.00
2013-9-1,83.8,70.0,58.6,58.5,55.6,52.8,85,62,38,29.90,29.78,6,2,18,0.00
2013-9-2,78.2,70.3,63.0,61.6,57.3,53.3,83,65,46,29.92,29.86,6,2,15,0.00
2013-9-3,79.1,68.0,60.0,60.5,57.5,54.9,88,71,46,29.99,29.92,5,1,10,0.08
2013-9-4,75.1,67.2,59.0,61.4,58.3,55.2,88,74,57,30.04,29.97,4,1,10,0.00
2013-9-5,67.5,62.3,58.0,61.7,57.9,53.8,88,86,76,30.04,29.96,10,2,20,1.06
2013-9-6,69.5,63.1,58.5,61.7,57.9,54.3,89,83,70,30.13,30.03,13,5,25,0.72
2013-9-7,78.6,65.9,55.2,63.2,57.6,51.1,89,76,54,30.10,29.94,6,2,13,0.01
2013-9-8,83.8,70.7,59.1,63.6,60.0,55.2,88,71,42,30.06,29.96,8,2,16,0.00
2013-9-9,81.5,70.0,60.4,65.5,61.9,56.1,88,76,56,30.02,29.89,7,3,12,0.00
2013-9-10,90.6,74.4,61.2,66.7,62.2,57.0,88,69,44,29.91,29.73,7,3,14,0.00
2013-9-11,94.3,75.2,60.4,67.6,61.9,56.8,88,66,40,29.93,29.78,5,1,14,0.00
2013-9-12,80.4,66.9,58.1,66.3,60.2,54.4,89,80,59,30.00,29.88,4,1,9,0.00
2013-9-13,74.4,64.6,56.9,65.4,59.7,52.9,89,85,72,29.97,29.82,4,1,8,0.00
2013-9-14,77.8,66.8,61.3,65.0,61.0,57.1,89,82,64,29.84,29.69,5,2,9,0.00
2013-9-15,67.0,62.4,59.5,61.6,58.7,56.3,89,88,81,29.89,29.71,7,3,15,0.03
2013-9-16,69.6,63.4,59.6,59.8,57.6,55.6,89,82,65,29.97,29.89,9,4,17,0.00
2013-9-17,67.0,61.5,56.3,58.1,53.9,47.8,89,77,53,30.01,29.86,5,1,11,0.01
2013-9-18,70.5,61.8,54.8,56.5,52.0,47.3,89,72,45,30.10,30.00,5,2,12,0.00
2013-9-19,77.6,60.6,45.2,55.7,50.5,41.9,89,72,42,30.00,29.77,4,0,7,0.00
2013-9-20,71.9,59.3,50.3,57.9,53.4,46.7,89,82,59,29.77,29.65,11,2,25,0.02
2013-9-21,66.8,59.7,55.5,58.2,54.9,51.7,89,84,65,29.79,29.68,8,2,20,0.06
2013-9-22,61.8,57.7,55.8,56.6,53.8,52.0,92,87,71,29.88,29.69,16,8,32,0.57
2013-9-23,60.6,57.0,54.3,56.9,53.7,50.7,90,89,84,30.00,29.87,10,4,21,0.57
2013-9-24,59.4,54.2,51.3,53.4,50.7,48.4,90,88,73,29.99,29.87,7,2,14,0.17
2013-9-25,59.8,53.4,49.9,51.1,48.7,46.8,91,84,64,30.04,29.87,5,2,10,0.04
2013-9-26,64.9,54.0,48.1,52.5,48.6,44.9,90,83,59,30.17,30.04,8,1,15,0.00
2013-9-27,57.2,52.6,46.5,53.3,49.2,43.1,90,88,81,30.18,29.93,15,7,29,0.18
2013-9-28,66.0,60.2,56.1,58.7,56.2,52.9,90,87,75,29.93,29.58,20,12,39,0.21
2013-9-30,58.7,54.5,51.5,53.5,50.6,48.2,90,87,79,30.01,29.81,15,8,27,0.51
2013-10-1,59.4,52.5,46.5,51.0,48.0,43.9,91,85,58,30.20,29.99,8,4,22,0.44
2013-10-2,53.3,47.4,42.5,49.4,44.4,39.4,91,89,84,30.19,30.08,6,1,14,0.20
2013-10-3,56.8,48.3,43.1,48.1,43.8,40.1,91,85,64,30.42,30.19,6,1,11,0.00
2013-10-4,64.2,50.4,40.5,53.5,45.8,37.5,91,85,67,30.46,30.33,4,1,9,0.01
2013-10-5,71.1,53.6,39.3,54.7,46.5,36.3,91,79,49,30.34,30.13,3,0,6,0.01
2013-10-6,73.5,55.7,41.9,55.8,46.4,38.6,90,74,40,30.14,29.96,7,2,15,0.01
2013-10-7,61.5,55.4,51.7,51.9,49.2,47.5,90,80,62,30.15,29.98,9,4,23,0.12
2013-10-8,56.5,52.2,47.0,51.5,48.0,44.2,90,86,71,30.16,29.99,8,4,17,0.04
2013-10-9,58.6,49.0,43.7,48.0,43.9,41.0,91,83,62,30.11,29.97,7,3,13,0.00
2013-10-10,60.2,51.6,44.6,52.1,46.8,41.6,90,84,65,30.09,29.96,6,1,14,0.01
2013-10-11,58.3,51.9,45.9,49.2,45.8,42.0,90,81,57,30.15,30.09,4,0,8,0.01
2013-10-12,57.1,50.0,45.4,49.8,46.0,42.6,90,86,71,30.17,30.07,4,1,9,0.08
2013-10-13,62.2,50.9,44.1,49.8,45.1,41.1,91,81,60,30.30,30.17,6,3,11,0.00
2013-10-14,66.1,53.5,42.9,49.5,45.3,39.8,90,75,53,30.35,30.26,8,4,16,0.01
2013-10-15,67.7,55.8,46.0,46.2,43.1,40.4,85,64,39,30.31,30.12,9,3,17,0.00
2013-10-16,66.1,51.8,40.4,49.3,44.7,37.5,90,78,51,30.16,30.09,4,1,8,0.00
2013-10-17,64.7,53.0,45.0,51.0,46.6,41.7,90,80,59,30.23,30.13,5,2,10,0.00
2013-10-18,70.6,53.9,38.1,51.0,44.0,35.1,90,72,43,30.17,30.06,6,1,12,0.00
2013-10-19,68.6,51.7,37.8,54.3,45.9,34.8,90,82,58,30.15,30.08,3,0,5,0.00
2013-10-20,64.0,51.6,40.3,51.5,46.0,37.0,90,82,61,30.15,30.05,4,1,10,0.01
2013-10-21,69.6,54.2,45.2,57.7,49.2,41.9,92,84,64,30.09,29.96,4,0,6,0.01
2013-10-22,73.5,55.0,41.6,57.4,48.5,38.3,90,80,54,30.05,29.94,2,0,7,0.00
2013-10-23,68.8,53.3,42.4,55.7,48.3,39.1,92,84,63,30.01,29.93,2,0,5,0.01
2013-10-24,60.9,49.5,43.5,55.0,46.0,40.1,92,88,81,30.09,29.98,4,0,7,0.01
2013-10-25,53.1,49.5,43.4,50.2,46.4,40.1,92,89,87,30.27,30.09,4,1,8,0.02
2013-10-26,52.7,51.0,49.4,49.4,48.2,46.5,91,90,88,30.29,30.16,4,1,8,0.01
2013-10-27,56.3,50.9,48.3,50.7,46.7,44.8,91,86,70,30.18,29.83,11,3,24,0.15
2013-10-28,57.8,50.4,44.4,45.2,38.3,33.0,91,65,41,29.92,29.81,12,5,21,0.00
2013-10-29,59.9,46.3,35.9,38.5,34.3,29.4,88,66,35,30.06,29.92,7,2,11,0.00
2013-10-30,58.1,45.4,32.6,46.0,38.6,29.9,96,78,54,30.19,30.06,4,0,8,0.00
2013-10-31,57.3,54.0,50.5,53.1,49.1,45.6,90,84,76,30.27,30.15,10,3,21,0.00
2013-11-1,60.0,52.7,43.7,52.9,48.5,40.4,90,86,76,30.28,29.92,6,1,14,0.03
2013-11-2,55.5,50.8,44.8,50.3,45.7,41.3,90,83,62,30.08,29.76,13,7,26,0.52
2013-11-3,50.8,45.9,42.0,45.3,42.5,39.6,91,88,76,30.17,30.07,8,4,19,0.10
2013-11-4,50.4,47.4,45.0,46.5,44.5,42.2,91,90,84,30.18,30.11,8,5,16,0.09
2013-11-5,53.5,51.8,48.2,51.0,49.0,45.2,92,90,88,30.24,30.09,10,5,21,0.05
2013-11-6,54.7,52.2,49.4,51.1,48.8,46.5,92,88,88,30.29,30.08,5,2,9,0.33
2013-11-7,56.5,52.2,47.7,53.9,48.1,44.6,91,86,76,30.14,29.89,17,7,45,0.41
2013-11-8,51.7,48.9,45.2,48.3,46.0,42.4,94,90,86,30.21,30.12,8,3,18,0.04
2013-11-9,48.5,45.5,41.6,45.4,42.6,38.7,91,90,88,30.12,30.04,3,0,8,0.01
2013-11-10,55.4,48.3,42.4,50.5,44.8,39.4,91,88,81,30.09,30.04,4,1,8,0.00
2013-11-11,51.7,44.9,40.2,48.9,42.0,37.2,91,90,89,30.15,30.01,4,1,8,0.01
2013-11-12,58.8,50.8,45.5,55.6,47.7,42.4,91,89,88,30.42,30.08,5,1,12,0.19
2013-11-13,51.4,48.6,45.4,48.0,45.5,42.3,92,89,88,30.48,30.30,5,2,9,0.01
2013-11-14,51.0,47.3,43.7,47.4,44.3,41.1,94,89,85,30.30,30.11,5,1,9,0.01
2013-11-15,48.4,45.1,41.3,44.8,42.2,38.4,92,90,86,30.12,29.56,16,6,32,0.05
2013-11-16,49.9,48.0,46.1,46.6,43.1,41.5,92,83,74,29.86,29.55,16,7,32,0.01
2013-11-17,54.5,50.4,46.7,47.3,45.2,42.9,92,83,75,30.00,29.87,14,8,29,0.02
2013-11-18,54.3,51.9,50.1,50.0,46.7,43.8,91,82,73,29.97,29.73,13,7,28,0.22
2013-11-19,53.3,48.3,38.8,50.7,44.5,32.6,91,87,69,30.03,29.71,11,5,26,0.67
2013-11-20,46.3,38.3,32.9,35.7,31.5,22.9,91,77,58,30.38,30.04,11,6,21,0.00
2013-11-21,47.6,38.2,30.8,24.5,19.6,14.3,68,49,26,30.55,30.38,12,6,20,0.00
2013-11-22,50.0,36.9,24.6,28.5,22.9,18.4,91,61,33,30.55,30.37,10,3,21,0.00
2013-11-23,51.7,38.2,27.0,31.9,25.4,22.3,90,64,33,30.37,30.15,7,2,13,0.00
2013-11-24,50.4,36.7,27.7,33.3,29.5,25.2,91,76,49,30.28,30.16,3,0,7,0.00
2013-11-25,47.9,36.4,27.2,34.8,30.8,24.9,91,81,58,30.35,30.28,3,0,6,0.00
2013-11-26,44.7,36.9,28.8,37.4,32.7,26.2,91,85,74,30.29,30.07,3,0,5,0.00
2013-11-27,51.3,40.4,32.6,39.2,34.7,29.9,91,81,59,30.07,29.95,4,0,7,0.01
2013-11-28,50.9,38.4,28.7,39.9,33.3,26.1,91,83,64,30.21,30.02,4,0,6,0.00
2013-11-29,43.3,36.6,29.3,40.9,33.9,26.8,92,90,87,30.37,30.21,4,0,5,0.02
2013-11-30,51.4,44.5,39.8,47.3,41.4,36.8,91,89,85,30.40,30.22,10,1,16,0.01
2013-12-1,55.9,53.5,50.1,53.1,50.5,46.7,92,90,85,30.23,29.94,17,12,34,0.76
2013-12-2,52.2,43.5,36.1,49.4,39.2,33.6,91,85,71,30.06,29.92,12,5,23,0.06
2013-12-3,43.1,36.3,30.4,37.1,27.9,18.3,91,73,43,30.28,30.06,13,4,21,0.01
2013-12-4,37.4,31.0,26.8,22.7,19.3,14.2,82,63,42,30.33,30.27,9,4,15,0.00
2013-12-5,30.7,25.2,18.9,22.3,19.2,14.2,91,78,58,30.30,30.16,3,0,8,0.00
2013-12-6,31.2,28.3,26.1,21.6,16.4,11.1,82,61,48,30.16,29.94,11,7,21,0.00
2013-12-7,28.9,24.4,18.9,13.0,9.0,5.2,65,52,38,30.43,30.07,11,7,24,0.00
2013-12-8,28.0,19.2,11.7,15.4,12.3,8.1,90,75,55,30.61,30.43,4,0,6,0.00
2013-12-9,27.9,21.7,13.6,22.6,17.2,10.9,91,83,75,30.63,30.54,3,1,7,0.00
2013-12-10,34.5,29.2,24.6,27.3,24.6,22.1,92,83,74,30.56,30.41,4,0,6,0.00
2013-12-11,29.8,26.4,22.7,27.2,24.0,20.5,91,90,90,30.41,30.23,4,0,7,0.00
2013-12-12,36.9,28.8,22.6,34.2,26.4,20.4,96,91,89,30.24,30.13,5,1,9,0.12
2013-12-13,49.7,43.9,36.3,47.1,41.1,33.4,91,90,89,30.41,30.22,6,2,10,0.01